AAL809 KTYS-KMCO

Flight info

Callsign AAL809
Flight time 1h 10m
Altitude 35000
Route TALLA DAREE Q65 KERLY/N0435F340 WHYYT GRNCH5
Aircraft A320/M-SDE3FGHIRWY/LB1

Departure

Time 2026-04-21 19:46
Airport McGhee Tyson Airport (KTYS)

Arrival

Time 2026-04-21 20:57
Airport Orlando International Airport (KMCO)
Time Latitude Longitude Altitude Speed Heading
2026-04-21 19:34 35.80762 -83.99041 968 ft 0 kts 209°
2026-04-21 19:37 35.80775 -83.99032 963 ft 3 kts 214°
2026-04-21 19:38 35.80791 -83.99017 964 ft 3 kts 224°
2026-04-21 19:38 35.80804 -83.98999 964 ft 3 kts 238°
2026-04-21 19:38 35.80812 -83.98977 966 ft 3 kts 266°
2026-04-21 19:38 35.80811 -83.98960 966 ft 2 kts 311°
2026-04-21 19:39 35.80809 -83.98957 966 ft 1 kts 315°
2026-04-21 19:43 35.80842 -83.98997 966 ft 13 kts 315°
2026-04-21 19:43 35.80941 -83.99035 967 ft 16 kts 355°
2026-04-21 19:43 35.81042 -83.98976 966 ft 18 kts 46°
2026-04-21 19:43 35.81130 -83.98866 963 ft 19 kts 46°
2026-04-21 19:44 35.81222 -83.98746 964 ft 20 kts 44°
2026-04-21 19:44 35.81328 -83.98625 966 ft 21 kts 45°
2026-04-21 19:44 35.81436 -83.98493 962 ft 22 kts 50°
2026-04-21 19:44 35.81548 -83.98360 966 ft 23 kts 45°
2026-04-21 19:45 35.81672 -83.98245 963 ft 12 kts 21°
2026-04-21 19:45 35.81737 -83.98257 962 ft 8 kts 309°
2026-04-21 19:45 35.81732 -83.98300 962 ft 5 kts 223°
2026-04-21 19:45 35.81656 -83.98391 958 ft 44 kts 225°
2026-04-21 19:46 35.81234 -83.98905 962 ft 123 kts 224°
2026-04-21 19:46 35.80463 -83.99835 1047 ft 175 kts 225°
2026-04-21 19:46 35.79532 -84.00917 1635 ft 194 kts 217°
2026-04-21 19:46 35.78258 -84.01536 2471 ft 205 kts 184°
2026-04-21 19:47 35.76822 -84.01157 3357 ft 222 kts 162°
2026-04-21 19:47 35.75330 -84.00450 4071 ft 238 kts 160°
2026-04-21 19:47 35.73738 -83.99676 4695 ft 254 kts 161°
2026-04-21 19:47 35.72035 -83.98884 5360 ft 267 kts 162°
2026-04-21 19:48 35.70267 -83.98106 6108 ft 273 kts 163°
2026-04-21 19:48 35.68429 -83.97497 6885 ft 276 kts 175°
2026-04-21 19:48 35.66503 -83.97242 7646 ft 280 kts 177°
2026-04-21 19:48 35.64544 -83.97019 8372 ft 285 kts 178°
2026-04-21 19:49 35.62561 -83.96806 9146 ft 288 kts 178°
2026-04-21 19:49 35.60553 -83.96592 9928 ft 292 kts 177°
2026-04-21 19:49 35.58501 -83.96376 10475 ft 303 kts 178°
2026-04-21 19:49 35.56348 -83.96152 10797 ft 319 kts 178°
2026-04-21 19:50 35.54857 -83.95995 10991 ft 330 kts 178°
2026-04-21 19:50 35.51692 -83.95657 11338 ft 352 kts 177°
2026-04-21 19:50 35.49206 -83.95384 11730 ft 363 kts 177°
2026-04-21 19:50 35.46677 -83.95099 12336 ft 367 kts 177°
2026-04-21 19:51 35.44123 -83.94811 12934 ft 371 kts 178°
2026-04-21 19:51 35.41538 -83.94524 13512 ft 374 kts 178°
2026-04-21 19:51 35.38931 -83.94237 14097 ft 378 kts 178°
2026-04-21 19:51 35.36305 -83.93946 14637 ft 382 kts 178°
2026-04-21 19:52 35.33646 -83.93653 15159 ft 385 kts 178°
2026-04-21 19:52 35.30961 -83.93358 15680 ft 389 kts 178°
2026-04-21 19:52 35.28226 -83.93058 16200 ft 392 kts 178°
2026-04-21 19:52 35.25529 -83.92766 16702 ft 395 kts 178°
2026-04-21 19:53 35.22739 -83.92467 17222 ft 399 kts 178°
2026-04-21 19:53 35.19966 -83.92170 17744 ft 403 kts 178°
2026-04-21 19:53 35.17159 -83.91869 18290 ft 406 kts 178°
2026-04-21 19:53 35.14329 -83.91565 18809 ft 410 kts 178°
2026-04-21 19:54 35.11484 -83.91256 19286 ft 413 kts 178°
2026-04-21 19:54 35.08612 -83.90942 19782 ft 416 kts 178°
2026-04-21 19:54 35.05716 -83.90626 20294 ft 419 kts 178°
2026-04-21 19:54 35.02797 -83.90309 20775 ft 422 kts 178°
2026-04-21 19:55 34.99866 -83.89990 21253 ft 425 kts 178°
2026-04-21 19:55 34.96911 -83.89670 21696 ft 428 kts 178°
2026-04-21 19:55 34.93943 -83.89348 22129 ft 430 kts 178°
2026-04-21 19:55 34.90949 -83.89020 22535 ft 433 kts 178°
2026-04-21 19:56 34.87942 -83.88693 22930 ft 435 kts 178°
2026-04-21 19:56 34.84915 -83.88364 23324 ft 438 kts 178°
2026-04-21 19:56 34.81868 -83.88033 23725 ft 441 kts 178°
2026-04-21 19:56 34.78803 -83.87703 24072 ft 443 kts 178°
2026-04-21 19:57 34.75722 -83.87373 24400 ft 445 kts 178°
2026-04-21 19:57 34.72635 -83.87041 24729 ft 447 kts 178°
2026-04-21 19:57 34.69528 -83.86707 25041 ft 449 kts 178°
2026-04-21 19:57 34.66406 -83.86373 25348 ft 451 kts 178°
2026-04-21 19:58 34.63297 -83.85753 25661 ft 456 kts 169°
2026-04-21 19:58 34.60271 -83.84528 25976 ft 462 kts 159°
2026-04-21 19:58 34.57373 -83.82805 26269 ft 466 kts 156°
2026-04-21 19:58 34.54477 -83.81028 26565 ft 468 kts 156°
2026-04-21 19:59 34.51562 -83.79253 26874 ft 470 kts 156°
2026-04-21 19:59 34.48627 -83.77477 27176 ft 472 kts 156°
2026-04-21 19:59 34.45682 -83.75705 27497 ft 473 kts 156°
2026-04-21 19:59 34.42727 -83.73932 27859 ft 474 kts 157°
2026-04-21 20:00 34.39769 -83.72158 28267 ft 473 kts 157°
2026-04-21 20:00 34.36823 -83.70390 28668 ft 473 kts 157°
2026-04-21 20:00 34.33876 -83.68622 29088 ft 472 kts 157°
2026-04-21 20:00 34.30900 -83.66837 29509 ft 471 kts 157°
2026-04-21 20:01 34.27967 -83.65077 29932 ft 471 kts 158°
2026-04-21 20:01 34.25029 -83.63314 30343 ft 470 kts 158°
2026-04-21 20:01 34.22101 -83.61556 30694 ft 470 kts 158°
2026-04-21 20:01 34.19173 -83.59800 31004 ft 471 kts 158°
2026-04-21 20:02 34.17229 -83.58636 31197 ft 471 kts 158°
2026-04-21 20:02 34.13289 -83.56280 31579 ft 473 kts 158°
2026-04-21 20:02 34.10338 -83.54517 31864 ft 474 kts 158°
2026-04-21 20:02 34.07378 -83.52756 32151 ft 475 kts 158°
2026-04-21 20:03 34.04410 -83.50990 32435 ft 476 kts 158°
2026-04-21 20:03 34.01435 -83.49216 32742 ft 477 kts 158°
2026-04-21 20:03 33.98457 -83.47439 33024 ft 478 kts 158°
2026-04-21 20:03 33.95467 -83.45658 33306 ft 479 kts 158°
2026-04-21 20:04 33.92477 -83.43880 33592 ft 480 kts 158°
2026-04-21 20:04 33.89476 -83.42098 33877 ft 481 kts 158°
2026-04-21 20:04 33.86470 -83.40313 34147 ft 482 kts 158°
2026-04-21 20:04 33.83454 -83.38527 34393 ft 483 kts 158°
2026-04-21 20:05 33.80435 -83.36742 34611 ft 484 kts 158°
2026-04-21 20:05 33.77419 -83.34957 34845 ft 484 kts 158°
2026-04-21 20:05 33.74355 -83.33143 34997 ft 485 kts 158°
2026-04-21 20:06 33.68274 -83.29552 35017 ft 496 kts 158°
2026-04-21 20:06 33.61999 -83.25848 35030 ft 500 kts 158°
2026-04-21 20:07 33.55753 -83.22166 35027 ft 501 kts 158°
2026-04-21 20:07 33.50560 -83.19110 35021 ft 501 kts 158°
2026-04-21 20:08 33.43248 -83.14816 35022 ft 501 kts 158°
2026-04-21 20:08 33.36988 -83.11143 35027 ft 501 kts 158°
2026-04-21 20:09 33.30720 -83.07480 35015 ft 501 kts 158°
2026-04-21 20:09 33.25515 -83.04439 35013 ft 501 kts 158°
2026-04-21 20:10 33.19242 -83.00781 35011 ft 502 kts 158°
2026-04-21 20:10 33.12926 -82.97098 35016 ft 502 kts 158°
2026-04-21 20:11 33.06653 -82.93441 35012 ft 502 kts 158°
2026-04-21 20:11 33.00378 -82.89800 35014 ft 502 kts 158°
2026-04-21 20:12 32.94086 -82.86167 35011 ft 503 kts 158°
2026-04-21 20:12 32.87782 -82.82524 35008 ft 504 kts 158°
2026-04-21 20:13 32.81481 -82.78876 35018 ft 503 kts 158°
2026-04-21 20:13 32.75187 -82.75235 35017 ft 503 kts 158°
2026-04-21 20:14 32.68880 -82.71611 35016 ft 503 kts 158°
2026-04-21 20:14 32.62577 -82.67990 35014 ft 504 kts 158°
2026-04-21 20:15 32.56267 -82.64359 35010 ft 504 kts 158°
2026-04-21 20:15 32.49950 -82.60735 35005 ft 504 kts 158°
2026-04-21 20:16 32.43630 -82.57122 35005 ft 504 kts 158°
2026-04-21 20:16 32.37311 -82.53514 35001 ft 505 kts 158°
2026-04-21 20:17 32.31621 -82.50256 34991 ft 505 kts 158°
2026-04-21 20:17 32.25288 -82.46645 34996 ft 505 kts 158°
2026-04-21 20:18 32.18954 -82.43051 34995 ft 505 kts 158°
2026-04-21 20:18 32.12618 -82.39455 34995 ft 506 kts 158°
2026-04-21 20:19 32.06017 -82.36755 34991 ft 495 kts 175°
2026-04-21 20:19 31.99236 -82.35883 34988 ft 490 kts 181°
2026-04-21 20:20 31.92437 -82.35160 34987 ft 490 kts 181°
2026-04-21 20:20 31.85647 -82.34432 34980 ft 490 kts 181°
2026-04-21 20:21 31.78854 -82.33711 34990 ft 490 kts 181°
2026-04-21 20:21 31.72063 -82.32991 34979 ft 490 kts 181°
2026-04-21 20:22 31.65263 -82.32282 34978 ft 490 kts 181°
2026-04-21 20:22 31.55063 -82.31204 34979 ft 491 kts 181°
2026-04-21 20:23 31.48268 -82.30481 34978 ft 491 kts 181°
2026-04-21 20:23 31.41460 -82.29769 34978 ft 491 kts 181°
2026-04-21 20:24 31.34660 -82.29060 34979 ft 491 kts 181°
2026-04-21 20:24 31.27848 -82.28339 34978 ft 491 kts 181°
2026-04-21 20:25 31.20999 -82.27619 34967 ft 491 kts 181°
2026-04-21 20:25 31.14190 -82.26907 34972 ft 491 kts 181°
2026-04-21 20:26 31.07420 -82.26204 34988 ft 491 kts 181°
2026-04-21 20:26 31.00589 -82.25744 35007 ft 484 kts 190°
2026-04-21 20:27 30.93961 -82.26636 35026 ft 479 kts 194°
2026-04-21 20:27 30.87347 -82.27623 35083 ft 479 kts 194°
2026-04-21 20:28 30.80742 -82.28590 35308 ft 478 kts 194°
2026-04-21 20:28 30.74160 -82.29554 35376 ft 476 kts 194°
2026-04-21 20:29 30.67599 -82.30522 35384 ft 475 kts 194°
2026-04-21 20:29 30.61014 -82.31373 35389 ft 480 kts 187°
2026-04-21 20:30 30.54280 -82.30559 35405 ft 491 kts 175°
2026-04-21 20:30 30.47543 -82.29186 35397 ft 491 kts 176°
2026-04-21 20:31 30.40808 -82.27837 35396 ft 491 kts 176°
2026-04-21 20:31 30.34081 -82.26487 35380 ft 491 kts 176°
2026-04-21 20:32 30.27339 -82.25136 35359 ft 491 kts 176°
2026-04-21 20:32 30.20607 -82.23797 35351 ft 491 kts 176°
2026-04-21 20:33 30.13880 -82.22457 35349 ft 491 kts 176°
2026-04-21 20:33 30.07146 -82.21123 35349 ft 491 kts 176°
2026-04-21 20:34 30.00371 -82.19785 35338 ft 490 kts 176°
2026-04-21 20:34 29.93642 -82.18458 35315 ft 490 kts 176°
2026-04-21 20:35 29.86919 -82.17131 35304 ft 490 kts 176°
2026-04-21 20:35 29.80214 -82.15793 35234 ft 483 kts 175°
2026-04-21 20:36 29.76900 -82.15128 34350 ft 489 kts 175°
2026-04-21 20:36 29.73500 -82.14453 33028 ft 502 kts 175°
2026-04-21 20:36 29.70035 -82.13765 32060 ft 506 kts 174°
2026-04-21 20:36 29.66562 -82.13072 31120 ft 508 kts 174°
2026-04-21 20:37 29.63060 -82.12374 29919 ft 514 kts 174°
2026-04-21 20:37 29.59531 -82.11672 28795 ft 514 kts 174°
2026-04-21 20:37 29.56019 -82.10969 27929 ft 509 kts 174°
2026-04-21 20:37 29.52563 -82.10278 27253 ft 502 kts 174°
2026-04-21 20:38 29.49157 -82.09601 26547 ft 496 kts 174°
2026-04-21 20:38 29.45787 -82.08937 25880 ft 490 kts 174°
2026-04-21 20:38 29.42459 -82.08279 25268 ft 483 kts 174°
2026-04-21 20:38 29.39163 -82.07626 24664 ft 477 kts 174°
2026-04-21 20:39 29.35945 -82.06989 24465 ft 461 kts 174°
2026-04-21 20:39 29.32828 -82.06342 24224 ft 450 kts 171°
2026-04-21 20:39 29.29845 -82.05280 23775 ft 448 kts 161°
2026-04-21 20:39 29.27077 -82.03718 22871 ft 442 kts 154°
2026-04-21 20:40 29.24402 -82.02029 21915 ft 436 kts 153°
2026-04-21 20:40 29.21769 -82.00357 21094 ft 428 kts 153°
2026-04-21 20:40 29.19191 -81.98721 20491 ft 416 kts 153°
2026-04-21 20:40 29.16672 -81.97127 20062 ft 414 kts 153°
2026-04-21 20:41 29.14166 -81.95547 19528 ft 410 kts 153°
2026-04-21 20:41 29.12478 -81.94486 19178 ft 410 kts 153°
2026-04-21 20:41 29.09981 -81.92920 18702 ft 408 kts 153°
2026-04-21 20:41 29.07536 -81.91318 18177 ft 406 kts 147°
2026-04-21 20:42 29.05335 -81.89316 17746 ft 401 kts 137°
2026-04-21 20:42 29.02672 -81.86432 17061 ft 396 kts 137°
2026-04-21 20:42 29.01321 -81.84979 16645 ft 396 kts 137°
2026-04-21 20:42 28.99325 -81.82842 16363 ft 386 kts 137°
2026-04-21 20:43 28.97503 -81.80655 16093 ft 377 kts 127°
2026-04-21 20:43 28.95916 -81.78299 15692 ft 372 kts 127°
2026-04-21 20:43 28.94350 -81.75965 15274 ft 369 kts 127°
2026-04-21 20:43 28.92796 -81.73652 14861 ft 365 kts 126°
2026-04-21 20:44 28.91257 -81.71367 14451 ft 362 kts 126°
2026-04-21 20:44 28.89727 -81.69100 13993 ft 360 kts 126°
2026-04-21 20:44 28.88187 -81.66821 13390 ft 362 kts 126°
2026-04-21 20:44 28.86664 -81.64567 12987 ft 356 kts 126°
2026-04-21 20:45 28.85155 -81.62335 12555 ft 353 kts 126°
2026-04-21 20:45 28.83660 -81.60125 12137 ft 350 kts 126°
2026-04-21 20:45 28.82194 -81.57962 11967 ft 339 kts 126°
2026-04-21 20:45 28.80775 -81.55878 11845 ft 327 kts 128°
2026-04-21 20:46 28.79149 -81.54077 11718 ft 318 kts 142°
2026-04-21 20:46 28.77295 -81.52807 11422 ft 315 kts 152°
2026-04-21 20:46 28.75359 -81.51658 11121 ft 311 kts 151°
2026-04-21 20:46 28.73464 -81.50533 10667 ft 303 kts 151°
2026-04-21 20:47 28.71582 -81.49410 10296 ft 301 kts 151°
2026-04-21 20:47 28.69732 -81.48300 9943 ft 299 kts 151°
2026-04-21 20:47 28.67900 -81.47199 9603 ft 299 kts 150°
2026-04-21 20:47 28.66070 -81.46098 9273 ft 296 kts 151°
2026-04-21 20:48 28.64254 -81.45007 8946 ft 294 kts 150°
2026-04-21 20:48 28.62450 -81.43926 8619 ft 292 kts 150°
2026-04-21 20:48 28.60607 -81.42981 8370 ft 289 kts 162°
2026-04-21 20:48 28.58660 -81.42578 8246 ft 281 kts 173°
2026-04-21 20:49 28.56741 -81.42422 8118 ft 273 kts 178°
2026-04-21 20:49 28.54874 -81.42423 7988 ft 264 kts 178°
2026-04-21 20:49 28.53054 -81.42424 7710 ft 261 kts 178°
2026-04-21 20:49 28.51234 -81.42423 7422 ft 260 kts 178°
2026-04-21 20:50 28.49436 -81.42421 7153 ft 258 kts 177°
2026-04-21 20:50 28.47643 -81.42421 6875 ft 257 kts 177°
2026-04-21 20:50 28.45861 -81.42420 6616 ft 254 kts 176°
2026-04-21 20:50 28.44107 -81.42421 6352 ft 251 kts 176°
2026-04-21 20:51 28.42374 -81.42422 6099 ft 247 kts 176°
2026-04-21 20:51 28.40669 -81.42423 5866 ft 244 kts 176°
2026-04-21 20:51 28.38974 -81.42424 5622 ft 242 kts 175°
2026-04-21 20:51 28.37291 -81.42423 5379 ft 241 kts 176°
2026-04-21 20:52 28.35624 -81.42423 5147 ft 237 kts 175°
2026-04-21 20:52 28.34022 -81.42232 4879 ft 226 kts 152°
2026-04-21 20:52 28.32832 -81.41178 4567 ft 216 kts 128°
2026-04-21 20:52 28.31847 -81.39872 4256 ft 212 kts 126°
2026-04-21 20:53 28.30935 -81.38608 3979 ft 202 kts 125°
2026-04-21 20:53 28.30068 -81.37404 3716 ft 192 kts 125°
2026-04-21 20:53 28.29237 -81.36230 3463 ft 190 kts 120°
2026-04-21 20:53 28.28862 -81.34863 3203 ft 183 kts 86°
2026-04-21 20:54 28.29256 -81.33513 2948 ft 185 kts 55°
2026-04-21 20:54 28.30309 -81.32634 2582 ft 199 kts 19°
2026-04-21 20:54 28.31754 -81.32530 2117 ft 216 kts
2026-04-21 20:54 28.33268 -81.32569 1761 ft 217 kts
2026-04-21 20:55 28.34740 -81.32603 1440 ft 209 kts
2026-04-21 20:55 28.36162 -81.32673 1133 ft 199 kts
2026-04-21 20:55 28.37482 -81.32673 856 ft 184 kts
2026-04-21 20:55 28.38723 -81.32669 670 ft 173 kts
2026-04-21 20:56 28.39894 -81.32667 451 ft 165 kts
2026-04-21 20:56 28.41025 -81.32668 230 ft 160 kts
2026-04-21 20:56 28.42131 -81.32683 103 ft 159 kts
2026-04-21 20:56 28.43047 -81.32659 100 ft 89 kts 359°
2026-04-21 20:57 28.43569 -81.32673 101 ft 47 kts
2026-04-21 20:57 28.43748 -81.32540 100 ft 28 kts 58°
2026-04-21 20:57 28.43850 -81.32348 100 ft 28 kts 59°
2026-04-21 20:57 28.43951 -81.32156 101 ft 29 kts 58°
2026-04-21 20:58 28.43950 -81.32010 99 ft 18 kts 171°
2026-04-21 20:58 28.43812 -81.32002 99 ft 25 kts 179°
2026-04-21 20:58 28.43595 -81.32000 98 ft 35 kts 180°
2026-04-21 20:58 28.43341 -81.31998 98 ft 38 kts 179°
2026-04-21 20:59 28.43070 -81.31993 98 ft 40 kts 180°
2026-04-21 20:59 28.42788 -81.31992 101 ft 41 kts 178°
2026-04-21 20:59 28.42704 -81.31939 103 ft 13 kts 82°
2026-04-21 20:59 28.42738 -81.31843 101 ft 16 kts 16°
2026-04-21 21:00 28.42893 -81.31838 99 ft 27 kts 359°
2026-04-21 21:00 28.42963 -81.31776 98 ft 14 kts 119°
2026-04-21 21:00 28.42941 -81.31644 95 ft 19 kts 71°
2026-04-21 21:00 28.42955 -81.31549 95 ft 8 kts 94°
2026-04-21 21:01 28.42918 -81.31481 95 ft 9 kts 165°
2026-04-21 21:01 28.42874 -81.31501 95 ft 2 kts 211°
2026-04-21 21:01 28.42864 -81.31508 97 ft 0 kts 211°